Change the Weather History Date:

Sunday, February 10, 2013

  Actual Average Record
Temperature  
Mean Temperature 32 °F -  
Max Temperature 41 °F 28 °F 51 °F (2009)
Min Temperature 24 °F 16 °F -23 °F (2011)
Degree Days  
Heating Degree Days 32    
Moisture  
Dew Point 32 °F    
Average Humidity 94    
Maximum Humidity 100    
Minimum Humidity 85    
Precipitation  
Precipitation 0.07 in - - ()
Sea Level Pressure  
Sea Level Pressure 29.53 in    
Wind  
Wind Speed 9 mph (SE)    
Max Wind Speed 18 mph    
Max Gust Speed 20 mph    
Visibility 7 miles    
Events Fog , Rain    
Averages and records for this station are not official NWS values.
T = Trace of Precipitation, MM = Missing Value Source: NWS Daily Summary

Daily Weather History Graph

Daily Weather History Graph

Search for Another Location

Airport or City:

Trip Planner

Search our weather history database for the weather conditions in past years. The results will help you decide how hot, cold, wet, or windy it might be!

Date:

Astronomy

Feb. 10, 2013 Rise Set
Actual Time 7:06 AM CST 5:24 PM CST
Civil Twilight 6:36 AM CST 5:54 PM CST
Nautical Twilight 6:02 AM CST 6:28 PM CST
Astronomical Twilight 5:29 AM CST 7:01 PM CST
Moon 6:53 AM CST (2/10) 6:18 PM CST (2/10)
Length of Visible Light 11h 17m
Length of Day
10h 17m
New Moon, 0% of the Moon is Illuminated
Feb 10
New Moon
Feb 17
First Quarter
Feb 25
Full
Mar 4
Last Quarter
Mar 11
New

Hourly Weather History & Observations

Time (CST) Temp. Windchill Dew Point Humidity Pressure Visibility Wind Dir Wind Speed Gust Speed Precip Events Conditions
12:55 AM 27.5 °F 21.1 °F 24.1 °F 87% 30.04 in 10.0 mi ESE 5.8 mph - N/A   Overcast
1:55 AM 27.3 °F 19.9 °F 24.4 °F 89% 30.02 in 10.0 mi East 6.9 mph - N/A   Overcast
2:52 AM 28.4 °F 20.4 °F 24.8 °F 86% 29.99 in 10.0 mi East 8.1 mph - N/A   Overcast
2:55 AM 27.7 °F 19.6 °F 25.0 °F 90% 29.98 in 10.0 mi East 8.1 mph - N/A   Overcast
3:53 AM 28.4 °F 20.4 °F 24.8 °F 86% 29.96 in 10.0 mi ESE 8.1 mph - N/A   Overcast
3:55 AM 27.9 °F 20.6 °F 25.5 °F 91% 29.96 in 10.0 mi ESE 6.9 mph - N/A   Overcast
4:25 AM 28.4 °F 19.7 °F 24.8 °F 86% 29.95 in 10.0 mi ESE 9.2 mph - N/A   Overcast
4:34 AM 28.4 °F 19.7 °F 24.8 °F 86% 29.95 in 10.0 mi ESE 9.2 mph - N/A   Overcast
4:36 AM 28.4 °F 19.7 °F 24.8 °F 86% 29.95 in 10.0 mi East 9.2 mph - N/A   Overcast
4:43 AM 28.4 °F 19.1 °F 24.8 °F 86% 29.94 in 10.0 mi East 10.4 mph - N/A   Overcast
4:53 AM 26.6 °F 16.8 °F 24.8 °F 93% 29.95 in 10.0 mi ESE 10.4 mph - N/A   Overcast
4:55 AM 27.3 °F 18.4 °F 25.3 °F 92% 29.95 in 10.0 mi ESE 9.2 mph - N/A   Overcast
5:07 AM 26.6 °F 17.5 °F 24.8 °F 93% 29.94 in 10.0 mi ESE 9.2 mph - N/A   Overcast
5:21 AM 26.6 °F 18.2 °F 24.8 °F 93% 29.94 in 10.0 mi East 8.1 mph - N/A   Overcast
5:47 AM 26.6 °F 16.2 °F 24.8 °F 93% 29.92 in 9.0 mi East 11.5 mph - N/A   Overcast
5:55 AM 26.4 °F 16.0 °F 24.4 °F 92% 29.92 in 9.0 mi ESE 11.5 mph - N/A   Overcast
6:02 AM 26.6 °F 16.8 °F 24.8 °F 93% 29.91 in 9.0 mi East 10.4 mph - N/A   Overcast
6:13 AM 26.6 °F 15.2 °F 24.8 °F 93% 29.89 in 9.0 mi East 13.8 mph - N/A   Overcast
6:17 AM 26.6 °F 16.2 °F 24.8 °F 93% 29.89 in 9.0 mi ESE 11.5 mph - N/A   Overcast
6:49 AM 24.8 °F 14.6 °F 23.0 °F 93% 29.86 in 9.0 mi ESE 10.4 mph - N/A   Mostly Cloudy
6:55 AM 25.5 °F 16.2 °F 23.5 °F 92% 29.86 in 8.0 mi ESE 9.2 mph - N/A   Mostly Cloudy
7:07 AM 24.8 °F 14.0 °F 23.0 °F 93% 29.84 in 7.0 mi ESE 11.5 mph - N/A   Overcast
7:55 AM 26.2 °F 15.8 °F 23.9 °F 91% 29.80 in 7.0 mi ESE 11.5 mph - N/A   Overcast
8:22 AM 26.6 °F 17.5 °F 24.8 °F 93% 29.80 in 7.0 mi East 9.2 mph - N/A   Overcast
8:55 AM 27.3 °F 18.4 °F 24.4 °F 89% 29.79 in 8.0 mi East 9.2 mph - N/A   Overcast
9:31 AM 28.4 °F 19.1 °F 26.6 °F 93% 29.74 in 3.0 mi East 10.4 mph - N/A   Light Freezing Rain
9:55 AM 28.4 °F 18.5 °F 26.6 °F 93% 29.75 in 4.0 mi East 11.5 mph - N/A   Overcast
10:34 AM 30.2 °F 19.8 °F 26.6 °F 86% 29.68 in 2.0 mi East 13.8 mph - N/A   Light Freezing Rain
10:40 AM 30.2 °F 19.8 °F 28.4 °F 93% 29.67 in 2.0 mi East 13.8 mph - N/A   Light Freezing Drizzle
10:55 AM 30.2 °F 19.8 °F 28.4 °F 93% 29.69 in 2.0 mi East 13.8 mph - N/A Rain Light Freezing Rain
11:47 AM 32.0 °F 24.8 °F 32.0 °F 100% 29.59 in 3.0 mi ESE 8.1 mph - N/A   Light Freezing Drizzle
11:52 AM 32.0 °F 24.8 °F 32.0 °F 100% 29.58 in 3.0 mi ESE 8.1 mph - N/A   Light Drizzle
11:55 AM 32.0 °F 24.8 °F 32.0 °F 100% 29.61 in 3.0 mi ESE 8.1 mph - N/A Rain Light Rain
12:55 PM 33.8 °F 22.8 °F 33.8 °F 100% 29.49 in 6.0 mi East 18.4 mph - N/A Rain Light Rain
1:55 PM 35.6 °F 26.2 °F 33.8 °F 93% 29.49 in 5.0 mi ESE 15.0 mph - N/A Rain Light Rain
2:38 PM 35.6 °F 27.1 °F 33.8 °F 93% 29.43 in 2.5 mi ESE 12.7 mph - N/A Rain Light Rain
2:55 PM 35.6 °F 28.0 °F 35.6 °F 100% 29.45 in 4.0 mi ESE 10.4 mph - N/A   Light Drizzle
3:24 PM 35.6 °F 28.0 °F 35.6 °F 100% 29.40 in 3.0 mi East 10.4 mph - N/A   Overcast
3:55 PM 35.6 °F 29.2 °F 35.6 °F 100% 29.43 in 3.0 mi ESE 8.1 mph - N/A   Overcast
4:11 PM 35.6 °F 28.6 °F 35.6 °F 100% 29.42 in 5.0 mi ESE 9.2 mph - N/A   Overcast
4:25 PM 37.4 °F 31.4 °F 35.6 °F 93% 29.43 in 4.0 mi ESE 8.1 mph - N/A   Overcast
4:45 PM 35.6 °F 29.2 °F 35.6 °F 100% 29.41 in 6.0 mi ESE 8.1 mph - N/A Rain Light Rain
4:55 PM 36.3 °F 30.1 °F 35.8 °F 98% 29.41 in 5.0 mi ESE 8.1 mph - 0.01 in   Overcast
5:11 PM 35.6 °F 28.6 °F 35.6 °F 100% 29.40 in 7.0 mi East 9.2 mph - N/A   Overcast
5:12 PM 35.6 °F 29.2 °F 35.6 °F 100% 29.40 in 7.0 mi East 8.1 mph - N/A   Overcast
5:47 PM 35.6 °F 28.0 °F 35.6 °F 100% 29.38 in 2.5 mi East 10.4 mph - N/A   Overcast
5:49 PM 35.6 °F 28.0 °F 35.6 °F 100% 29.38 in 2.0 mi East 10.4 mph - N/A   Overcast
5:51 PM 35.6 °F 28.0 °F 35.6 °F 100% 29.38 in 1.8 mi East 10.4 mph - N/A   Overcast
5:53 PM 35.6 °F 28.0 °F 35.6 °F 100% 29.37 in 1.5 mi East 10.4 mph - N/A   Overcast
5:55 PM 35.8 °F 28.3 °F 35.6 °F 99% 29.37 in 1.5 mi East 10.4 mph - 0.01 in   Overcast
5:56 PM 35.6 °F 28.0 °F 35.6 °F 100% 29.37 in 1.2 mi East 10.4 mph - N/A   Overcast
6:02 PM 35.6 °F 28.6 °F 35.6 °F 100% 29.37 in 1.0 mi East 9.2 mph - N/A   Overcast
6:07 PM 35.6 °F 28.0 °F 35.6 °F 100% 29.37 in 0.8 mi East 10.4 mph - N/A   Mist
6:17 PM 35.6 °F 28.6 °F 35.6 °F 100% 29.37 in 0.5 mi East 9.2 mph - N/A Fog Fog
6:53 PM 35.6 °F 28.6 °F 35.6 °F 100% 29.34 in 0.8 mi East 9.2 mph - N/A   Mist
6:55 PM 36.0 °F 29.0 °F 35.6 °F 99% 29.34 in 0.8 mi ESE 9.2 mph - N/A   Mist
7:06 PM 37.4 °F 32.8 °F 35.6 °F 93% 29.34 in 0.8 mi ESE 5.8 mph - N/A Rain Light Rain
7:10 PM 37.4 °F 32.1 °F 37.4 °F 100% 29.34 in 1.0 mi ESE 6.9 mph - N/A Rain Light Rain
7:12 PM 37.4 °F 31.4 °F 37.4 °F 100% 29.34 in 1.2 mi ESE 8.1 mph - N/A Rain Light Rain
7:14 PM 37.4 °F 32.1 °F 37.4 °F 100% 29.34 in 1.5 mi ESE 6.9 mph - N/A Rain Light Rain
7:15 PM 37.4 °F 31.4 °F 37.4 °F 100% 29.34 in 1.8 mi ESE 8.1 mph - N/A Rain Light Rain
7:16 PM 37.4 °F 31.4 °F 37.4 °F 100% 29.34 in 2.0 mi ESE 8.1 mph - N/A   Overcast
7:17 PM 37.4 °F 31.4 °F 37.4 °F 100% 29.33 in 3.0 mi ESE 8.1 mph - N/A   Overcast
7:19 PM 37.4 °F 31.4 °F 37.4 °F 100% 29.33 in 4.0 mi ESE 8.1 mph - N/A   Overcast
7:39 PM 37.4 °F 34.9 °F 37.4 °F 100% 29.34 in 5.0 mi ESE 3.5 mph - N/A Rain Light Rain
7:55 PM 38.5 °F 33.4 °F 38.3 °F 99% 29.34 in 4.0 mi Variable 6.9 mph - 0.03 in Rain Light Rain
8:11 PM 39.2 °F 35.0 °F 37.4 °F 93% 29.34 in 8.0 mi South 5.8 mph - N/A Rain Light Rain
8:12 PM 39.2 °F 34.2 °F 39.2 °F 100% 29.34 in 8.0 mi South 6.9 mph - N/A   Overcast
8:14 PM 39.2 °F 35.0 °F 39.2 °F 100% 29.34 in 9.0 mi SSE 5.8 mph - N/A   Overcast
8:17 PM 39.2 °F 35.0 °F 39.2 °F 100% 29.33 in 10.0 mi SSE 5.8 mph - N/A   Overcast
8:28 PM 39.2 °F 37.0 °F 39.2 °F 100% 29.33 in 10.0 mi Variable 3.5 mph - N/A   Overcast
8:30 PM 39.2 °F 35.9 °F 39.2 °F 100% 29.33 in 10.0 mi Variable 4.6 mph - N/A   Overcast
8:40 PM 41.0 °F 34.3 °F 39.2 °F 93% 29.33 in 10.0 mi SSW 11.5 mph - N/A Rain Light Rain
8:55 PM 41.2 °F 35.0 °F 37.0 °F 85% 29.34 in 10.0 mi SW 10.4 mph 19.6 mph 0.01 in Rain Light Rain
9:22 PM 39.2 °F 33.0 °F 35.6 °F 87% 29.34 in 10.0 mi SW 9.2 mph - N/A   Mostly Cloudy
9:24 PM 39.2 °F 32.5 °F 35.6 °F 87% 29.34 in 10.0 mi SW 10.4 mph - N/A Rain Light Rain
9:55 PM 38.7 °F 32.4 °F 35.4 °F 88% 29.33 in 10.0 mi SSW 9.2 mph 17.3 mph 0.01 in Rain Light Rain
10:08 PM 37.4 °F 32.1 °F 35.6 °F 93% 29.33 in 10.0 mi South 6.9 mph - N/A   Mostly Cloudy
10:12 PM 37.4 °F 32.1 °F 35.6 °F 93% 29.33 in 10.0 mi SSW 6.9 mph - N/A Rain Light Rain
10:18 PM 37.4 °F 30.3 °F 35.6 °F 93% 29.33 in 10.0 mi SSW 10.4 mph - N/A Rain Light Rain
10:20 PM 37.4 °F 30.3 °F 35.6 °F 93% 29.33 in 10.0 mi SSW 10.4 mph - N/A Rain Light Rain
10:21 PM 37.4 °F 30.8 °F 35.6 °F 93% 29.33 in 10.0 mi SSW 9.2 mph - N/A   Overcast
10:24 PM 37.4 °F 30.8 °F 33.8 °F 87% 29.33 in 10.0 mi SSW 9.2 mph - N/A   Overcast
10:51 PM 37.4 °F 29.8 °F 33.8 °F 87% 29.33 in 10.0 mi SSW 11.5 mph - N/A   Overcast
10:54 PM 37.4 °F 30.8 °F 33.8 °F 87% 29.33 in 10.0 mi SSW 9.2 mph - N/A   Overcast
10:55 PM 37.0 °F 31.0 °F 34.3 °F 90% 29.33 in 10.0 mi SSW 8.1 mph - 0.00 in   Overcast
11:13 PM 37.4 °F 32.1 °F 33.8 °F 87% 29.33 in 10.0 mi South 6.9 mph - N/A   Overcast
11:38 PM 35.6 °F 29.9 °F 33.8 °F 93% 29.32 in 10.0 mi South 6.9 mph - N/A   Overcast
11:39 PM 35.6 °F 30.7 °F 33.8 °F 93% 29.32 in 10.0 mi South 5.8 mph - N/A   Overcast
11:44 PM 35.6 °F 28.6 °F 33.8 °F 93% 29.32 in 10.0 mi South 9.2 mph - N/A   Overcast
11:50 PM 35.6 °F 29.2 °F 33.8 °F 93% 29.32 in 10.0 mi South 8.1 mph - N/A   Overcast
11:52 PM 35.6 °F 29.9 °F 33.8 °F 93% 29.32 in 10.0 mi SSW 6.9 mph - N/A   Overcast
11:53 PM 35.6 °F 29.2 °F 33.8 °F 93% 29.32 in 10.0 mi South 8.1 mph - N/A   Overcast
11:54 PM 35.6 °F 29.2 °F 33.8 °F 93% 29.32 in 10.0 mi South 8.1 mph - N/A   Overcast
11:55 PM 36.0 °F 30.3 °F 34.7 °F 95% 29.32 in 10.0 mi South 6.9 mph - 0.00 in   Overcast
11:57 PM 35.6 °F 29.9 °F 33.8 °F 93% 29.32 in 10.0 mi South 6.9 mph - N/A Rain Light Rain